When you browse on this site, cookies collect data to enhance your experience and personalize the content and advertising you see.
Visit our Privacy Policy to learn more. By continuing to use the site, you agree to this use of cookies and data.
  • In Hungary
  • List of Countries
  • For 7 days
  • Water Temperature
  • Weather Map
  • News
  • Weather Widgets
  • user-avatar
    Login

    Hourly Weather Amenloch

    Today, 31 May, Sunday

    Time Temperature Precipitation Wind Pressure Humidity
    00:00 +9°C° 0 mm 1 mps 722 mmHg 90%
    01:00 +8°C° 0 mm 1 mps 722 mmHg 90%
    02:00 +8°C° 0 mm 1 mps 722 mmHg 91%
    03:00 +7°C° 0 mm 1 mps 722 mmHg 92%
    04:00 +7°C° 0 mm 1 mps 722 mmHg 93%
    05:00 +8°C° 0 mm 1 mps 722 mmHg 87%
    06:00 +9°C° 0 mm 1 mps 722 mmHg 81%
    07:00 +11°C° 0 mm 1 mps 722 mmHg 75%
    08:00 +13°C° 0 mm 2 mps 722 mmHg 67%
    09:00 +14°C° 0 mm 3 mps 722 mmHg 60%
    10:00 +16°C° 0 mm 3 mps 722 mmHg 52%
    11:00 +17°C° 0 mm 4 mps 722 mmHg 49%
    12:00 +18°C° 0 mm 4 mps 722 mmHg 46%
    13:00 +19°C° 0 mm 4 mps 722 mmHg 44%
    14:00 +19°C° 0 mm 4 mps 722 mmHg 45%
    15:00 +19°C° 0 mm 4 mps 722 mmHg 47%
    16:00 +19°C° 0 mm 4 mps 722 mmHg 49%
    17:00 +18°C° 0 mm 4 mps 722 mmHg 55%
    18:00 +17°C° 0 mm 4 mps 722 mmHg 61%
    19:00 +16°C° 0 mm 3 mps 722 mmHg 66%
    20:00 +13°C° 0 mm 3 mps 722 mmHg 72%
    21:00 +11°C° 0 mm 3 mps 722 mmHg 79%
    22:00 +10°C° 0 mm 2 mps 722 mmHg 85%
    23:00 +9°C° 0 mm 2 mps 722 mmHg 86%

    Tomorrow, 1 June, Monday

    Time Temperature Precipitation Wind Pressure Humidity
    00:00 +8°C° 0 mm 2 mps 722 mmHg 88%
    01:00 +8°C° 0 mm 2 mps 722 mmHg 89%
    02:00 +8°C° 0 mm 1 mps 722 mmHg 90%
    03:00 +8°C° 0 mm 1 mps 722 mmHg 91%
    04:00 +7°C° 0 mm 1 mps 722 mmHg 92%
    05:00 +9°C° 0 mm 1 mps 722 mmHg 87%
    06:00 +10°C° 0 mm 1 mps 722 mmHg 82%
    07:00 +12°C° 0 mm 1 mps 722 mmHg 77%
    08:00 +14°C° 0 mm 2 mps 722 mmHg 70%
    09:00 +16°C° 0 mm 2 mps 723 mmHg 63%
    10:00 +19°C° 0 mm 2 mps 723 mmHg 56%
    11:00 +20°C° 0 mm 3 mps 723 mmHg 52%
    12:00 +21°C° 0 mm 3 mps 723 mmHg 48%
    13:00 +24°C° 0 mm 3 mps 722 mmHg 44%
    14:00 +24°C° 0 mm 3 mps 722 mmHg 46%
    15:00 +23°C° 0 mm 4 mps 722 mmHg 47%
    16:00 +23°C° 0 mm 4 mps 722 mmHg 49%
    17:00 +22°C° 0 mm 4 mps 722 mmHg 56%
    18:00 +20°C° 0 mm 3 mps 722 mmHg 63%
    19:00 +19°C° 0 mm 3 mps 721 mmHg 70%
    20:00 +17°C° 0 mm 3 mps 722 mmHg 76%
    21:00 +15°C° 0 mm 2 mps 722 mmHg 83%
    22:00 +13°C° 0 mm 2 mps 722 mmHg 90%
    23:00 +13°C° 0 mm 1 mps 722 mmHg 91%

    Day after tomorrow, 2 June, Tuesday

    Time Temperature Precipitation Wind Pressure Humidity
    00:00 +12°C° 0 mm 1 mps 722 mmHg 92%
    01:00 +11°C° 0 mm 1 mps 722 mmHg 93%
    02:00 +11°C° 0 mm 1 mps 721 mmHg 93%
    03:00 +10°C° 0 mm 1 mps 721 mmHg 94%
    04:00 +10°C° 0 mm 1 mps 721 mmHg 95%
    05:00 +11°C° 0 mm 1 mps 721 mmHg 90%
    06:00 +12°C° 0 mm 1 mps 721 mmHg 86%
    07:00 +14°C° 0 mm 1 mps 721 mmHg 82%
    08:00 +16°C° 0 mm 1 mps 721 mmHg 74%
    09:00 +18°C° 0 mm 2 mps 721 mmHg 66%
    10:00 +20°C° 0 mm 2 mps 721 mmHg 58%
    11:00 +21°C° 0 mm 2 mps 721 mmHg 54%
    12:00 +22°C° 0 mm 3 mps 721 mmHg 50%
    13:00 +25°C° 0 mm 3 mps 720 mmHg 45%
    14:00 +25°C° 0 mm 3 mps 720 mmHg 46%
    15:00 +25°C° 0 mm 4 mps 720 mmHg 47%
    16:00 +25°C° 0 mm 4 mps 719 mmHg 48%
    17:00 +22°C° 0 mm 3 mps 719 mmHg 56%
    18:00 +21°C° 0 mm 3 mps 719 mmHg 63%
    19:00 +19°C° 0 mm 2 mps 719 mmHg 71%
    20:00 +17°C° 0 mm 2 mps 718 mmHg 78%
    21:00 +15°C° 0 mm 2 mps 718 mmHg 84%
    22:00 +13°C° 0 mm 1 mps 718 mmHg 91%
    23:00 +12°C° 0 mm 1 mps 718 mmHg 92%

    3 June, Wednesday

    Time Temperature Precipitation Wind Pressure Humidity
    00:00 +12°C° 0 mm 1 mps 718 mmHg 92%
    01:00 +11°C° 0 mm 1 mps 717 mmHg 92%
    02:00 +11°C° 0 mm 1 mps 717 mmHg 92%
    03:00 +9°C° 0 mm 0 mps 717 mmHg 92%
    04:00 +9°C° 0 mm 0 mps 717 mmHg 93%
    05:00 +10°C° 0 mm 0 mps 716 mmHg 88%
    06:00 +12°C° 0 mm 0 mps 716 mmHg 84%
    07:00 +14°C° 0 mm 0 mps 716 mmHg 79%
    08:00 +16°C° 0 mm 0 mps 716 mmHg 70%
    09:00 +19°C° 0 mm 0 mps 716 mmHg 62%
    10:00 +23°C° 0 mm 1 mps 716 mmHg 53%
    11:00 +25°C° 0 mm 1 mps 716 mmHg 48%
    12:00 +26°C° 0 mm 1 mps 716 mmHg 43%
    13:00 +27°C° 0 mm 1 mps 716 mmHg 38%
    14:00 +27°C° 0 mm 1 mps 715 mmHg 37%
    15:00 +27°C° 0 mm 1 mps 715 mmHg 37%
    16:00 +27°C° 0 mm 1 mps 715 mmHg 36%
    17:00 +25°C° 0 mm 1 mps 715 mmHg 46%
    18:00 +23°C° 0 mm 1 mps 714 mmHg 56%
    19:00 +22°C° 0 mm 1 mps 714 mmHg 66%
    20:00 +20°C° 0.2 mm 1 mps 714 mmHg 71%
    21:00 +19°C° 0.2 mm 1 mps 714 mmHg 76%
    22:00 +16°C° 0.2 mm 1 mps 715 mmHg 82%
    23:00 +16°C° 0.3 mm 1 mps 714 mmHg 85%

    4 June, Thursday

    Time Temperature Precipitation Wind Pressure Humidity
    00:00 +16°C° 0.3 mm 1 mps 714 mmHg 88%
    01:00 +15°C° 0.3 mm 1 mps 714 mmHg 91%
    02:00 +15°C° 0.4 mm 2 mps 714 mmHg 93%
    03:00 +15°C° 0.4 mm 2 mps 714 mmHg 94%
    04:00 +15°C° 0.4 mm 2 mps 713 mmHg 96%
    05:00 +15°C° 1.5 mm 2 mps 713 mmHg 97%
    06:00 +15°C° 1.5 mm 2 mps 713 mmHg 97%
    07:00 +15°C° 1.5 mm 2 mps 713 mmHg 97%
    08:00 +15°C° 0.8 mm 2 mps 713 mmHg 97%
    09:00 +14°C° 0.8 mm 3 mps 714 mmHg 96%
    10:00 +16°C° 0.8 mm 3 mps 714 mmHg 95%
    11:00 +16°C° 0.8 mm 3 mps 714 mmHg 95%
    12:00 +16°C° 0.8 mm 3 mps 714 mmHg 95%
    13:00 +16°C° 0.8 mm 3 mps 714 mmHg 96%
    14:00 +16°C° 1.6 mm 3 mps 714 mmHg 95%
    15:00 +17°C° 1.6 mm 2 mps 714 mmHg 95%
    16:00 +17°C° 1.6 mm 2 mps 715 mmHg 94%
    17:00 +17°C° 0.7 mm 2 mps 715 mmHg 94%
    18:00 +17°C° 0.7 mm 2 mps 715 mmHg 93%
    19:00 +18°C° 0.7 mm 1 mps 715 mmHg 93%
    20:00 +16°C° 0.3 mm 1 mps 715 mmHg 93%
    21:00 +15°C° 0.3 mm 1 mps 715 mmHg 94%
    22:00 +14°C° 0.3 mm 1 mps 715 mmHg 94%
    23:00 +14°C° 0 mm 1 mps 715 mmHg 94%

    5 June, Friday

    Time Temperature Precipitation Wind Pressure Humidity
    00:00 +13°C° 0 mm 0 mps 715 mmHg 94%
    01:00 +12°C° 0 mm 0 mps 715 mmHg 94%
    02:00 +12°C° 0 mm 0 mps 715 mmHg 95%
    03:00 +12°C° 0 mm 0 mps 715 mmHg 95%
    04:00 +11°C° 0 mm 0 mps 715 mmHg 95%
    05:00 +12°C° 0 mm 0 mps 715 mmHg 94%
    06:00 +14°C° 0 mm 0 mps 715 mmHg 93%
    07:00 +15°C° 0 mm 0 mps 715 mmHg 92%
    08:00 +19°C° 0 mm 1 mps 715 mmHg 82%
    09:00 +21°C° 0 mm 1 mps 715 mmHg 72%
    10:00 +23°C° 0 mm 1 mps 715 mmHg 63%
    11:00 +25°C° 0.1 mm 2 mps 715 mmHg 59%
    12:00 +26°C° 0.1 mm 2 mps 715 mmHg 55%
    13:00 +27°C° 0.1 mm 2 mps 715 mmHg 51%
    14:00 +26°C° 0.3 mm 2 mps 715 mmHg 54%
    15:00 +26°C° 0.3 mm 3 mps 714 mmHg 57%
    16:00 +26°C° 0.3 mm 3 mps 714 mmHg 59%
    17:00 +24°C° 0.6 mm 2 mps 714 mmHg 69%
    18:00 +23°C° 0.6 mm 2 mps 714 mmHg 79%
    19:00 +20°C° 0.6 mm 2 mps 714 mmHg 88%
    20:00 +20°C° 0.5 mm 1 mps 714 mmHg 90%
    21:00 +19°C° 0.5 mm 1 mps 715 mmHg 91%
    22:00 +16°C° 0.5 mm 1 mps 715 mmHg 93%
    23:00 +16°C° 0.4 mm 1 mps 715 mmHg 94%
    Show more